Temperature
18 17 17 17 17 17 17 17 17 17 17 17 17 17 17 17 17 18 18 18 18 18 18 17 17 17 17 17 17 17 17 17 17 16 16 16 16 16 16 16 16 16 16
18 18 18 17 17 17 17 17 17 17 17 17 17 17 17 17 17 17 17 17 18 18 18 17 17 17 17 17 17 17 17 17 17 17 17 16 16 16 16 16 16 16 16
18 18 17 17 17 17 17 17 17 17 17 18 17 17 17 17 17 17 17 17 17 18 18 17 17 17 17 17 17 17 17 17 17 17 17 17 17 16 16 16 16 16 16
18 18 18 18 17 17 17 18 18 18 18 18 17 18 18 18 17 17 17 17 17 17 17 18 18 17 17 17 17 17 17 17 17 17 17 17 17 17 17 17 16 16 16
18 18 18 18 17 17 17 18 18 17 17 17 17 18 18 18 17 17 17 17 17 17 17 17 17 17 17 17 17 17 17 17 17 17 17 17 16 16 16 17 16 16 16
17 17 17 17 17 17 17 17 17 17 17 17 18 18 17 18 17 18 17 17 17 17 17 17 17 17 17 17 17 17 17 17 17 17 17 17 16 17 17 16 16 16 16
17 18 18 17 17 17 17 17 17 17 17 17 17 18 18 18 18 17 17 18 18 17 17 17 17 17 17 17 17 17 17 17 17 17 17 17 17 17 17 16 16 16 16
17 18 18 17 17 17 17 17 17 17 17 17 17 18 18 18 18 18 18 17 17 17 17 17 17 17 17 17 17 17 17 17 17 17 17 17 17 16 16 16 16 16 16
18 18 18 17 17 17 17 17 17 17 17 17 17 18 18 19 18 18 18 17 17 17 17 17 17 17 17 17 17 17 17 17 17 17 17 16 16 16 16 16 16 16 16
18 18 18 18 18 17 18 17 17 17 17 17 17 17 17 18 18 18 18 18 18 17 17 17 17 17 17 17 17 17 17 17 17 17 17 17 16 16 16 16 16 16 16
18 18 18 18 18 18 18 18 17 17 17 17 17 17 17 17 17 18 18 18 18 18 17 17 17 17 17 17 17 16 17 17 17 17 17 16 16 16 16 16 16 16 16
18 18 18 18 18 18 18 18 18 18 17 17 17 17 17 17 17 18 18 18 18 18 17 17 17 17 17 17 17 17 17 17 17 17 16 16 16 16 16 16 16 16 16
18 18 18 18 18 18 18 18 18 17 17 17 17 17 17 17 17 17 18 18 18 18 17 17 17 17 17 17 17 17 17 17 17 17 16 16 16 16 16 16 16 16 16
18 18 18 17 18 18 17 17 17 17 17 17 17 17 17 17 17 17 17 17 18 18 18 17 17 17 17 17 17 17 17 17 17 17 16 16 16 16 16 16 16 16 16
18 17 17 17 18 17 17 17 17 17 17 17 17 17 17 17 17 17 17 17 17 18 18 17 17 17 16 16 16 16 16 16 16 16 16 16 16 16 16 16 16 16 16
18 17 17 17 17 17 17 17 17 17 17 17 17 17 17 17 17 16 16 16 16 17 17 17 17 17 16 16 16 16 16 16 16 16 16 16 16 15 15 15 15 15 15
18 18 17 17 17 17 17 17 17 16 16 16 16 16 16 16 16 16 16 16 16 16 16 17 16 16 16 16 16 16 16 16 16 16 16 16 16 15 15 15 15 15 15
18 18 18 17 17 17 17 17 17 16 16 16 16 16 16 16 16 16 16 16 16 16 16 16 16 16 15 15 15 15 15 15 15 15 16 15 15 15 15 15 15 15 15
18 18 18 17 17 17 17 16 16 16 16 16 16 16 15 15 15 15 15 15 15 16 15 15 16 15 15 15 15 15 15 15 15 15 15 15 15 15 15 15 15 15 15
18 17 17 17 17 17 16 16 16 16 16 15 15 15 15 15 15 15 15 15 15 15 15 15 15 15 15 15 15 15 15 15 15 15 15 15 15 15 15 15 15 14 14
17 17 17 17 17 16 16 16 16 16 15 15 15 15 15 15 15 15 15 15 15 15 15 15 15 15 15 14 14 14 15 15 14 14 14 14 14 14 14 14 14 14 14
17 17 17 17 16 16 16 16 16 15 15 15 15 15 15 15 15 15 15 15 15 14 14 14 15 14 14 14 14 14 14 14 14 14 14 14 14 14 14 14 14 14 14
17 17 17 16 16 16 16 16 16 15 15 15 15 15 15 15 15 14 15 15 14 14 14 14 14 14 14 14 13 14 13 14 14 14 14 14 13 13 13 13 14 14 14
17 16 16 16 16 16 16 16 16 15 15 14 14 14 14 14 14 14 14 14 14 14 14 14 13 13 13 13 13 13 13 13 13 13 13 13 13 13 13 13 13 13 13
16 16 15 15 15 15 15 16 15 15 14 14 14 14 14 14 14 14 14 13 13 13 14 14 13 13 13 13 13 13 13 13 13 13 13 13 13 13 13 13 13 13 13
16 15 15 15 15 15 15 15 15 14 14 14 14 14 14 14 14 14 13 13 13 13 13 13 13 13 13 13 13 12 12 12 13 13 13 12 12 13 13 13 12 12 12
Wind_Speed
4 4 4 3 3 4 4 3 3 2 2 3 3 3 2 2 2 3 4 8 8 8 9 8 9 10 10 10 10 10 9 9 8 9 9 9 9 9 9 9 8 9 8
4 4 4 3 3 3 2 2 2 2 2 1 2 2 2 2 3 3 3 6 9 8 8 9 9 9 10 11 11 11 11 11 10 10 10 10 10 9 9 9 9 9 10
4 3 3 3 3 3 3 2 2 2 2 2 2 2 2 2 2 3 3 3 5 10 10 9 9 9 10 11 12 12 12 12 12 11 11 11 11 11 11 10 10 11 11
4 3 3 3 3 3 2 2 2 2 1 1 1 1 1 2 3 3 4 4 4 4 8 11 10 10 11 11 12 12 13 13 13 13 12 12 12 12 12 12 11 11 11
4 4 2 2 3 2 2 2 1 1 1 1 1 2 2 2 2 3 4 4 4 4 4 8 10 10 11 11 12 13 13 13 14 13 13 13 13 13 13 12 12 12 12
5 4 3 3 3 2 2 2 1 1 2 2 2 1 2 2 2 3 4 4 4 5 5 4 6 9 10 10 10 11 11 11 13 13 14 14 14 14 14 13 13 13 13
4 4 3 3 3 3 3 3 3 3 3 2 2 2 3 3 3 3 3 3 4 4 4 4 5 5 6 11 11 10 9 10 10 11 12 13 13 14 14 14 13 13 14
4 5 4 4 3 3 3 4 4 3 3 3 3 3 2 3 3 3 3 3 4 4 4 5 5 5 6 5 7 11 10 10 10 11 11 12 13 14 14 14 14 13 14
5 4 4 3 3 4 4 4 4 5 4 4 3 3 3 2 1 3 3 3 3 3 4 3 5 5 6 5 5 9 10 10 10 11 11 12 11 12 14 14 14 14 14
5 5 5 4 4 4 4 5 5 4 5 4 4 4 4 3 3 2 3 3 3 3 3 4 4 4 5 6 5 4 7 9 9 10 10 10 11 11 12 12 13 14 14
6 5 5 4 4 4 4 4 3 5 4 5 4 4 4 4 6 5 4 3 3 3 3 4 4 4 4 5 5 4 7 8 9 9 10 10 11 11 12 13 13 13 15
5 6 5 5 5 4 4 4 4 5 4 4 5 4 4 4 4 5 5 5 4 3 3 3 4 4 4 4 5 3 6 7 8 9 10 10 11 11 12 12 13 13 14
5 5 5 5 4 4 4 4 4 4 5 5 5 5 4 4 4 5 5 5 5 4 4 4 3 3 4 4 3 4 6 7 7 8 9 9 10 10 11 12 12 13 12
5 5 5 5 5 5 4 4 4 4 3 4 5 4 4 4 5 5 5 5 5 5 5 4 3 3 3 4 2 5 5 7 7 7 8 8 8 9 10 10 11 11 11
5 5 6 5 5 5 4 4 4 4 4 5 5 5 5 4 4 4 5 5 6 6 5 4 4 2 3 3 3 5 5 5 7 7 8 8 8 8 9 9 9 10 10
5 5 6 5 5 5 5 5 4 4 4 4 4 4 5 4 4 4 5 5 5 6 5 3 3 2 2 3 4 6 6 6 8 8 8 8 8 8 8 8 8 9 10
7 6 6 6 5 5 5 4 4 4 5 5 5 5 5 5 5 4 4 5 5 5 6 5 4 2 3 5 3 5 6 6 6 9 9 9 8 8 8 8 9 9 9
8 7 7 6 6 5 5 5 5 5 5 5 5 5 5 5 5 5 5 5 5 5 6 6 5 4 4 4 4 5 5 5 5 7 10 9 9 9 9 9 9 10 10
8 7 7 7 6 6 6 5 5 5 5 6 5 6 6 6 6 5 6 6 5 5 5 6 6 4 4 4 4 5 5 5 6 5 9 9 9 8 8 8 9 9 10
8 8 7 7 7 7 7 6 6 6 6 6 6 6 6 7 7 6 6 6 6 6 6 6 6 5 4 4 4 4 4 4 5 4 4 5 7 9 8 7 7 7 8
9 8 8 8 8 7 7 6 6 7 6 6 6 6 6 5 5 5 6 5 6 6 6 6 6 6 5 4 4 5 5 4 4 4 4 4 4 5 6 6 7 7 7
9 9 9 8 9 7 4 5 7 7 7 7 6 6 5 5 4 4 4 5 6 7 7 6 6 6 6 5 4 5 5 5 4 3 4 4 4 4 3 3 3 5 6
9 9 9 9 9 7 5 5 6 7 7 7 6 6 5 4 4 4 4 6 5 6 7 7 7 7 7 6 6 7 6 6 5 4 4 5 4 4 4 2 4 6 6
7 7 8 8 8 7 6 6 7 8 7 6 6 5 5 4 4 4 4 4 5 5 6 6 6 7 6 5 6 7 6 6 6 4 4 5 4 4 3 3 6 7 7
6 7 7 7 7 6 6 7 7 6 6 6 6 5 5 4 1 2 4 4 5 5 3 3 3 4 3 4 5 5 6 6 5 4 4 5 4 4 4 4 4 9 9
6 6 5 6 6 6 5 6 6 6 5 5 4 3 2 2 0 1 4 4 5 5 4 3 4 5 5 5 6 6 6 6 6 5 3 4 4 4 4 3 3 3 6
Wind_Direction
149 147 142 149 157 151 160 155 150 150 174 182 187 170 183 203 220 219 159 168 193 206 209 207 207 204 202 204 206 209 212 212 210 211 212 213 213 213 213 216 215 215 216
148 152 153 157 159 165 150 158 154 174 196 184 196 184 208 210 205 229 216 178 190 202 210 214 215 212 210 212 214 216 217 215 215 217 217 218 219 220 220 220 221 220 219
152 166 158 168 159 160 160 179 163 177 194 201 187 183 212 228 219 225 239 234 204 197 203 214 220 221 219 220 221 221 221 221 221 221 220 222 223 223 224 225 226 225 222
169 185 173 169 163 183 180 175 197 188 185 219 205 225 217 216 227 231 238 239 247 230 200 202 216 224 225 226 227 226 224 223 223 223 222 224 226 225 225 226 227 227 224
181 195 187 157 190 200 208 223 178 230 203 211 227 213 238 233 232 232 242 245 241 244 238 189 204 218 226 231 233 231 229 226 224 225 225 225 228 230 230 228 228 229 228
182 204 195 188 220 216 215 216 213 234 242 237 254 254 250 245 233 238 242 234 230 234 236 236 220 211 214 225 230 230 232 232 227 227 227 226 227 229 229 227 229 230 231
189 204 218 190 224 219 225 225 225 219 233 225 236 244 228 225 224 236 236 241 233 233 235 232 242 240 215 211 218 223 228 232 228 227 227 227 227 230 229 227 230 234 232
210 204 216 224 217 216 224 228 226 242 240 224 242 252 237 208 215 214 220 220 236 235 231 225 230 231 245 230 201 208 223 230 231 229 227 228 229 228 226 225 229 232 232
209 224 216 229 231 233 222 229 229 232 242 238 243 259 269 255 255 202 217 219 231 244 242 234 232 233 238 239 230 204 213 226 232 233 230 229 229 229 227 227 228 231 230
208 208 216 223 234 243 232 235 227 236 242 249 240 242 263 290 270 240 221 213 224 242 253 255 244 229 236 240 229 217 208 222 229 236 235 233 229 229 230 232 231 230 229
206 212 216 223 227 237 238 248 244 242 241 248 253 245 244 244 251 261 261 258 247 243 244 249 253 247 238 238 236 214 204 220 228 235 235 237 235 233 234 236 237 236 235
200 205 212 222 230 236 233 236 237 232 242 251 257 251 250 248 246 249 252 249 252 252 252 259 259 252 246 242 229 178 202 213 226 235 236 237 239 238 237 237 239 239 239
202 205 214 218 232 235 241 245 238 243 235 238 244 248 251 250 258 261 261 261 261 254 244 245 247 258 256 243 213 191 202 208 221 228 232 234 237 238 239 239 241 242 243
213 200 210 219 227 231 235 235 242 234 232 238 242 253 257 254 253 257 261 263 260 254 242 243 239 241 253 245 210 203 213 197 213 223 231 234 234 236 239 240 243 242 240
214 205 212 218 223 226 232 236 241 241 235 238 236 229 243 250 255 258 257 260 266 267 261 237 240 234 245 242 204 226 235 199 205 215 223 228 230 231 235 237 238 238 236
213 215 217 219 220 222 222 230 234 234 239 243 255 259 254 256 255 250 249 252 257 263 268 263 251 255 269 266 213 234 238 200 202 213 221 226 226 225 232 236 236 235 236
205 213 217 220 221 221 221 223 236 234 239 244 248 250 255 262 260 253 249 249 251 256 258 263 263 254 250 268 256 245 244 235 218 201 211 219 223 227 230 232 234 234 233
210 210 213 216 220 219 222 225 235 237 239 244 250 257 260 258 258 260 257 256 256 251 251 261 264 257 246 254 256 255 253 243 244 190 200 213 222 228 232 234 236 235 234
212 213 212 216 221 223 225 229 233 238 240 244 248 252 256 259 261 260 257 257 256 250 244 252 256 260 254 253 254 253 256 264 259 211 198 208 218 224 227 228 231 234 234
212 215 217 219 224 227 228 231 234 237 241 247 252 258 261 259 259 258 254 255 258 255 248 250 252 252 250 252 255 256 254 247 260 256 225 214 205 207 208 213 223 230 233
211 212 217 221 226 228 229 229 236 237 239 245 249 255 260 267 287 275 266 260 258 255 252 251 253 252 251 252 253 256 259 256 248 253 251 237 220 224 216 214 224 231 232
212 211 216 222 229 234 207 222 242 243 243 246 252 255 253 241 239 243 257 272 277 263 264 263 259 260 259 252 261 264 264 258 255 243 254 252 240 241 242 236 204 205 217
211 213 217 221 227 226 204 214 238 245 246 250 251 253 259 258 248 251 231 225 245 253 254 262 263 266 264 261 262 260 260 260 262 265 250 254 246 245 249 219 157 181 202
211 216 220 221 225 221 196 205 225 237 248 250 249 246 249 253 259 261 254 249 248 247 245 247 254 263 270 273 263 262 261 254 253 251 245 256 247 251 254 232 165 177 194
213 218 223 226 229 224 196 202 222 237 242 246 245 242 243 247 310 292 252 252 255 253 234 227 258 266 288 280 273 261 256 255 260 252 230 251 255 257 256 242 188 183 194
214 221 225 230 230 229 201 199 220 235 240 245 239 231 210 218 226 266 240 248 255 263 262 249 232 231 237 232 231 247 261 262 265 258 225 242 254 257 257 244 236 213 204
Height
1555 1557 1558 1559 1562 1562 1563 1564 1565 1566 1567 1568 1569 1570 1571 1571 1572 1573 1573 1572 1573 1573 1574 1574 1575 1575 1576 1576 1577 1577 1578 1579 1579 1580 1580 1581 1582 1582 1583 1583 1584 1584 1585
1556 1557 1558 1560 1562 1563 1564 1565 1566 1566 1567 1568 1569 1570 1570 1571 1571 1571 1572 1572 1572 1572 1573 1573 1573 1574 1574 1575 1576 1576 1577 1577 1578 1578 1579 1579 1580 1581 1581 1582 1582 1583 1583
1556 1557 1559 1560 1562 1563 1564 1564 1565 1566 1567 1568 1568 1568 1569 1570 1570 1570 1571 1571 1572 1571 1571 1571 1572 1572 1573 1573 1574 1574 1575 1575 1576 1577 1577 1578 1578 1579 1579 1580 1580 1581 1581
1556 1558 1560 1561 1562 1563 1564 1564 1565 1566 1566 1567 1567 1568 1568 1568 1568 1569 1569 1570 1570 1571 1570 1570 1570 1570 1571 1571 1572 1572 1572 1573 1574 1574 1575 1576 1576 1577 1577 1577 1578 1578 1579
1557 1558 1560 1561 1562 1563 1564 1564 1565 1565 1565 1565 1566 1566 1566 1567 1567 1567 1567 1568 1568 1568 1569 1568 1568 1568 1568 1569 1569 1570 1570 1571 1571 1572 1572 1573 1574 1574 1575 1575 1575 1576 1576
1557 1558 1560 1560 1562 1563 1563 1563 1563 1563 1564 1564 1565 1565 1565 1565 1565 1565 1566 1566 1566 1566 1567 1567 1566 1566 1566 1566 1566 1567 1567 1568 1568 1569 1570 1570 1571 1571 1572 1572 1573 1573 1574
1557 1557 1560 1560 1560 1562 1562 1562 1562 1562 1563 1563 1564 1564 1564 1564 1564 1563 1564 1564 1564 1564 1564 1564 1564 1564 1564 1563 1563 1564 1564 1565 1565 1566 1567 1567 1568 1569 1569 1569 1570 1570 1571
1556 1558 1558 1559 1560 1560 1560 1560 1560 1561 1562 1562 1562 1563 1562 1563 1562 1562 1562 1562 1562 1562 1562 1562 1561 1561 1561 1561 1561 1561 1561 1562 1562 1563 1563 1564 1565 1566 1566 1566 1567 1567 1568
1555 1556 1557 1558 1558 1558 1559 1558 1559 1559 1560 1561 1561 1562 1561 1560 1561 1561 1560 1560 1559 1559 1559 1559 1559 1558 1558 1558 1558 1558 1558 1558 1559 1559 1560 1561 1561 1562 1562 1563 1563 1564 1564
1554 1555 1555 1556 1556 1557 1557 1557 1558 1558 1558 1559 1559 1558 1559 1559 1559 1559 1559 1558 1557 1557 1557 1557 1557 1556 1555 1555 1555 1555 1555 1555 1556 1556 1557 1557 1557 1558 1559 1559 1560 1560 1561
1552 1553 1554 1554 1554 1555 1555 1555 1555 1556 1556 1556 1557 1557 1557 1556 1557 1557 1556 1556 1556 1555 1555 1554 1554 1554 1553 1553 1552 1552 1551 1552 1552 1553 1553 1553 1554 1554 1555 1555 1556 1556 1557
1550 1551 1551 1552 1552 1553 1553 1553 1552 1553 1553 1553 1554 1554 1554 1554 1554 1554 1554 1553 1553 1553 1552 1552 1552 1551 1551 1550 1550 1549 1548 1548 1549 1549 1549 1550 1550 1550 1550 1551 1551 1552 1552
1549 1549 1550 1550 1550 1550 1551 1551 1550 1551 1551 1551 1551 1551 1551 1551 1551 1551 1551 1551 1550 1550 1550 1549 1549 1548 1548 1547 1547 1545 1545 1545 1545 1545 1545 1546 1546 1546 1546 1547 1547 1547 1548
1547 1547 1548 1548 1548 1548 1549 1548 1549 1548 1548 1548 1548 1548 1548 1548 1548 1548 1549 1548 1548 1547 1547 1547 1546 1546 1545 1545 1544 1543 1543 1542 1542 1542 1541 1541 1542 1542 1542 1542 1543 1543 1544
1545 1545 1546 1546 1546 1546 1546 1546 1546 1546 1546 1546 1546 1545 1545 1545 1545 1545 1545 1545 1546 1544 1544 1544 1544 1543 1543 1542 1541 1540 1540 1539 1538 1538 1538 1537 1538 1538 1538 1538 1539 1539 1540
1541 1542 1543 1544 1544 1544 1544 1544 1544 1543 1543 1543 1543 1542 1542 1543 1542 1542 1542 1542 1542 1542 1541 1541 1541 1541 1540 1539 1538 1538 1537 1536 1535 1535 1534 1534 1534 1534 1534 1534 1535 1535 1535
1538 1539 1540 1541 1541 1541 1541 1541 1541 1541 1541 1540 1540 1540 1539 1539 1539 1539 1539 1539 1538 1538 1538 1538 1538 1537 1536 1536 1535 1535 1534 1534 1533 1532 1531 1531 1531 1531 1530 1530 1531 1531 1531
1535 1536 1537 1537 1538 1538 1538 1538 1538 1538 1538 1538 1537 1537 1537 1536 1536 1535 1535 1535 1535 1535 1535 1534 1534 1534 1533 1533 1532 1531 1532 1531 1530 1529 1528 1528 1528 1527 1527 1527 1527 1527 1527
1531 1533 1533 1534 1535 1535 1535 1535 1535 1535 1535 1535 1534 1534 1533 1533 1532 1532 1531 1532 1532 1532 1531 1531 1531 1530 1530 1529 1529 1528 1528 1527 1527 1526 1525 1524 1524 1524 1523 1523 1523 1523 1523
1528 1529 1530 1530 1531 1532 1532 1532 1531 1531 1531 1531 1531 1531 1530 1529 1529 1528 1528 1528 1528 1528 1528 1528 1527 1527 1526 1526 1525 1525 1525 1524 1524 1523 1522 1521 1521 1520 1520 1519 1519 1519 1519
1524 1525 1526 1526 1527 1528 1528 1527 1527 1527 1527 1527 1527 1526 1526 1525 1524 1524 1524 1524 1524 1524 1524 1524 1524 1523 1523 1522 1522 1521 1521 1521 1520 1520 1519 1518 1518 1517 1516 1515 1515 1515 1515
1519 1520 1521 1522 1522 1524 1523 1523 1523 1523 1523 1523 1523 1522 1521 1520 1519 1519 1519 1519 1520 1520 1521 1521 1520 1520 1519 1518 1518 1518 1518 1518 1517 1516 1516 1515 1515 1514 1513 1512 1511 1511 1511
1514 1515 1515 1516 1517 1518 1518 1519 1519 1519 1519 1519 1519 1518 1518 1517 1516 1516 1515 1515 1515 1515 1516 1516 1516 1515 1515 1514 1514 1514 1513 1513 1512 1512 1512 1511 1511 1510 1509 1508 1507 1507 1507
1509 1510 1510 1511 1512 1513 1513 1514 1514 1515 1515 1515 1515 1514 1513 1513 1513 1512 1512 1512 1511 1511 1511 1511 1511 1510 1510 1510 1509 1510 1509 1509 1508 1508 1508 1508 1507 1506 1506 1505 1504 1503 1503
1504 1505 1506 1507 1508 1508 1509 1510 1510 1511 1511 1511 1511 1511 1510 1509 1509 1508 1508 1508 1507 1506 1507 1506 1506 1506 1505 1505 1505 1506 1506 1505 1505 1504 1504 1504 1503 1503 1503 1502 1501 1500 1500
1500 1501 1502 1503 1503 1504 1505 1505 1506 1507 1507 1507 1508 1507 1506 1506 1505 1505 1505 1504 1503 1503 1503 1503 1502 1501 1501 1501 1501 1501 1501 1502 1501 1501 1500 1500 1499 1500 1499 1498 1498 1497 1496